This is the latest recevied weather packets stored in our database for station/object KC3ELT-10. If no packets are shown the sender has not sent any weather packets the latest 10 day(s).
| Time | Temp. | Humidity | Pressure | Rain* | Wind** | Luminosity | Snow |
|---|---|---|---|---|---|---|---|
| 1777947179 | 16.11° C | 50% | 1004.4 hPa | 0 mm | 0.89 m/s, 181° | - | - |
| 1777946879 | 16.67° C | 49% | 1004.4 hPa | 0 mm | 1.34 m/s, 209° | - | - |
| 1777946579 | 16.67° C | 49% | 1004.4 hPa | 0 mm | 1.79 m/s, 181° | - | - |
| 1777946279 | 16.67° C | 49% | 1004.1 hPa | 0 mm | 1.34 m/s, 142° | - | - |
| 1777945979 | 16.67° C | 49% | 1004.1 hPa | 0 mm | 2.68 m/s, 183° | - | - |
| 1777945679 | 16.67° C | 48% | 1004.1 hPa | 0 mm | 0.89 m/s, 199° | - | - |
| 1777945379 | 16.67° C | 49% | 1004.1 hPa | 0 mm | 1.34 m/s, 167° | - | - |
| 1777945079 | 16.67° C | 48% | 1004.1 hPa | 0 mm | 3.13 m/s, 189° | - | - |
| 1777944779 | 16.67° C | 49% | 1004.1 hPa | 0 mm | 1.79 m/s, 162° | - | - |
| 1777944479 | 16.67° C | 48% | 1003.9 hPa | 0 mm | 0.89 m/s, 70° | - | - |
| 1777944179 | 16.67° C | 49% | 1003.9 hPa | 0 mm | 2.24 m/s, 129° | - | - |
| 1777943879 | 16.67° C | 48% | 1003.9 hPa | 0 mm | 0 m/s | - | - |
| 1777943579 | 16.67° C | 48% | 1003.9 hPa | 0 mm | 0.89 m/s, 160° | - | - |
| 1777943279 | 16.67° C | 47% | 1003.9 hPa | 0 mm | 1.34 m/s, 154° | - | - |
| 1777942979 | 16.67° C | 47% | 1003.9 hPa | 0 mm | 1.79 m/s, 184° | - | - |
| 1777942679 | 16.67° C | 47% | 1003.9 hPa | 0 mm | 2.24 m/s, 167° | - | - |
| 1777942379 | 17.22° C | 47% | 1003.9 hPa | 0 mm | 0.89 m/s, 200° | - | - |
| 1777942079 | 16.67° C | 48% | 1003.9 hPa | 0 mm | 1.79 m/s, 149° | - | - |
| 1777941779 | 17.22° C | 47% | 1003.8 hPa | 0 mm | 0 m/s | - | - |
| 1777941479 | 17.22° C | 46% | 1003.8 hPa | 0 mm | 0.89 m/s, 163° | - | - |
| 1777941179 | 17.22° C | 46% | 1003.8 hPa | 0 mm | 1.79 m/s, 175° | - | - |
| 1777940879 | 17.22° C | 47% | 1003.9 hPa | 0 mm | 0.89 m/s, 214° | - | - |
| 1777940579 | 17.22° C | 46% | 1003.9 hPa | 0 mm | 1.79 m/s, 254° | - | - |
| 1777940279 | 17.22° C | 45% | 1003.9 hPa | 0 mm | 1.34 m/s, 187° | - | - |
| 1777939979 | 17.22° C | 45% | 1003.8 hPa | 0 mm | 0.45 m/s, 175° | - | - |
* Rain latest hour (hover to see other rain measurements)
** Current wind speed in m/s (hover to see current wind gust speed)